Wind_Speed
19 19 20 20 20 20 20 20 20 20 20 20 20 20 20 19 19 19 18 18 18 19 19 20 21 20 20 21 21 21 22 22 23 23 23 23 23 24 25 25 24 24 23 24
21 21 21 22 22 21 21 21 21 21 21 20 20 20 20 19 19 19 18 18 19 19 20 20 20 20 21 22 22 22 22 22 23 23 23 24 24 25 25 25 25 24 24 24
22 22 23 24 22 22 22 22 21 21 21 21 20 19 19 19 19 19 19 19 20 21 21 21 20 21 21 22 22 23 23 23 23 23 24 24 25 25 25 25 25 25 24 24
23 23 24 23 22 23 23 22 22 22 22 21 20 19 19 20 20 20 20 21 22 21 21 21 21 21 22 22 22 23 24 24 24 24 24 25 26 26 25 25 25 25 24 24
22 23 24 23 22 23 23 23 22 22 22 21 20 20 21 21 22 22 22 23 23 22 22 22 22 22 23 23 24 24 25 25 24 25 25 26 26 26 26 25 25 25 25 24
22 22 23 23 23 23 23 23 22 21 21 21 21 21 22 23 23 24 23 23 23 23 23 23 23 23 23 23 23 24 24 24 25 26 26 26 26 26 25 24 24 24 25 24
24 24 24 24 23 22 22 22 22 22 21 22 22 23 24 24 24 24 24 24 24 24 24 23 22 22 22 23 23 24 25 26 26 26 26 26 26 25 25 24 23 23 23 24
24 24 24 24 23 22 22 23 23 23 23 23 23 23 24 24 24 24 24 24 24 23 23 22 22 22 23 23 24 25 26 26 26 27 26 26 26 25 24 24 23 23 23 23
25 25 25 24 24 24 23 23 23 24 24 24 24 23 24 24 24 24 24 24 23 23 23 23 23 23 24 25 25 25 26 27 27 27 26 26 26 26 25 24 23 23 23 23
26 26 26 25 25 25 24 24 24 24 24 25 24 24 24 24 24 24 24 24 24 24 24 24 24 25 25 26 25 26 26 27 27 27 27 26 26 25 24 23 23 22 22 22
27 27 27 26 26 26 25 25 24 25 25 25 25 24 24 25 25 25 24 24 24 24 25 25 25 25 25 26 26 26 27 27 26 26 27 26 25 24 23 23 22 21 21 21
27 27 27 27 27 27 26 25 25 24 24 24 24 24 25 25 25 25 25 25 25 25 25 25 26 26 26 26 27 27 28 27 27 27 27 26 25 25 24 24 22 20 20 20
28 28 28 28 27 27 27 26 26 25 24 24 25 25 25 26 26 26 26 26 26 26 26 26 27 27 27 27 28 28 29 29 28 28 28 27 26 26 25 24 23 21 21 20
27 28 28 28 28 28 27 27 27 26 26 25 25 25 25 26 26 26 26 26 27 27 27 27 27 28 28 28 29 29 29 29 29 28 28 27 27 27 25 24 23 22 21 21
26 27 28 28 28 28 28 27 27 26 26 26 26 26 26 26 26 26 26 27 27 27 27 27 27 27 27 28 28 29 29 28 28 28 28 28 28 26 26 24 22 21 21 21
26 26 27 28 28 28 28 28 27 27 27 27 26 26 27 27 26 27 27 27 27 27 27 27 27 27 28 27 28 28 28 28 28 27 28 27 26 25 24 22 22 21 21 20
25 25 26 27 27 28 28 28 27 26 27 27 27 27 27 27 27 27 27 27 27 27 27 27 27 27 27 27 27 27 28 27 27 26 26 25 24 23 22 21 21 20 19 19
25 25 26 26 26 26 26 26 27 27 27 27 27 28 28 28 28 27 27 27 27 27 27 27 27 27 27 27 27 27 26 26 25 25 25 24 23 22 20 19 19 18 18 18
25 24 24 25 26 27 27 27 28 28 28 29 29 28 28 27 28 28 27 27 27 27 27 27 27 27 27 27 27 26 26 25 25 24 23 22 21 20 19 18 18 18 18 19
24 24 24 25 25 26 27 27 27 27 28 28 27 27 28 28 27 27 27 27 27 27 27 27 27 28 27 27 26 26 25 25 24 23 22 22 20 19 18 18 18 18 19 19
24 24 24 25 25 25 26 26 27 27 27 27 26 27 27 27 27 27 27 27 28 28 28 28 28 28 27 26 26 26 25 24 24 23 22 21 20 19 18 18 18 18 19 19
24 24 25 25 25 26 27 27 27 27 27 27 27 26 26 27 27 27 28 28 28 28 28 28 27 27 26 26 26 25 25 24 23 23 22 21 20 19 18 18 18 18 19 19
23 23 24 25 25 26 27 27 28 28 28 28 27 27 27 27 27 28 28 28 28 27 27 27 26 26 26 26 26 25 25 24 23 22 21 20 20 19 19 19 19 19 19 19
22 23 24 25 26 26 26 27 27 27 27 27 27 27 28 27 27 27 28 28 28 27 26 26 26 26 26 26 26 25 24 23 22 21 21 21 20 19 19 19 19 19 19 19
22 23 24 24 24 24 24 24 24 25 25 26 27 27 27 27 27 27 26 26 26 26 26 26 26 26 25 25 25 25 24 23 22 22 22 22 21 20 20 20 20 19 19 18
21 21 22 22 23 22 23 23 24 24 25 25 26 26 26 26 26 26 26 26 25 25 25 25 25 25 25 25 25 24 23 23 22 22 22 22 21 20 20 19 19 19 19 18
20 20 20 21 22 22 23 24 24 23 23 24 24 25 26 26 26 25 24 24 25 26 26 26 25 25 25 25 25 24 23 22 22 22 22 22 21 21 20 20 19 18 18 18
Wind_Direction
260 260 264 268 271 274 277 280 280 282 285 289 291 294 298 299 298 297 295 291 288 287 290 292 294 296 296 298 299 300 301 303 304 303 303 304 303 304 304 301 298 295 292 289
262 262 264 267 269 272 276 278 279 282 285 289 289 293 295 297 298 296 294 292 290 290 292 292 293 293 294 295 297 300 302 303 306 306 305 305 305 304 303 300 298 297 294 293
264 264 265 266 270 273 275 276 277 281 285 287 288 291 293 295 296 294 293 294 293 293 294 293 293 293 295 296 297 300 302 305 307 309 308 305 304 303 302 300 299 297 295 292
266 266 266 269 270 273 274 274 277 279 282 285 288 290 293 293 293 293 292 294 295 293 294 294 294 295 297 299 300 302 302 305 308 309 309 308 306 304 303 301 299 297 296 294
267 269 269 269 271 272 273 274 276 279 281 282 285 288 290 291 292 291 293 296 295 292 294 294 294 296 298 299 300 302 304 306 307 308 308 308 308 306 304 302 300 298 297 295
265 268 269 269 270 272 274 276 276 278 280 281 285 287 290 292 291 290 292 296 297 293 293 293 295 296 297 298 300 302 304 305 305 306 308 308 308 307 306 303 300 298 297 295
264 267 268 270 273 273 274 275 276 277 278 280 284 285 288 290 291 290 292 295 297 295 294 296 297 296 296 299 301 303 304 304 305 306 306 308 309 308 306 304 303 302 299 298
262 264 266 269 272 271 272 274 276 277 278 280 283 285 288 290 291 292 293 294 295 296 297 298 297 297 298 301 302 303 304 305 306 307 308 308 309 309 307 306 304 303 301 299
261 263 266 269 270 272 272 273 275 277 278 281 283 285 287 289 290 292 293 294 296 296 296 296 296 297 298 300 301 302 304 306 307 308 308 308 309 309 308 306 303 302 302 300
261 264 266 268 268 270 271 273 274 276 278 281 283 283 285 289 290 292 292 293 294 295 294 294 295 296 297 299 300 302 305 306 306 307 307 307 308 309 309 307 304 302 302 301
260 263 264 265 267 269 271 273 274 276 278 280 281 283 285 288 290 290 291 293 294 295 296 296 296 297 299 300 301 303 305 306 306 306 307 307 306 307 308 307 304 302 302 301
259 262 265 266 267 269 271 273 276 276 276 277 279 281 284 286 288 290 291 292 293 293 294 295 295 296 298 298 300 302 305 305 305 306 307 307 305 305 306 306 304 302 301 299
259 262 264 265 266 268 270 272 274 274 274 276 277 278 280 283 285 287 288 289 290 291 292 293 295 296 297 298 299 301 303 304 304 306 306 305 304 304 303 302 301 299 297 297
261 262 264 264 266 268 270 271 272 272 274 276 278 278 278 280 282 283 286 288 289 291 292 292 294 296 297 298 299 300 301 302 303 303 304 304 303 302 301 299 298 297 297 296
263 262 262 263 264 267 269 270 271 272 273 274 275 275 277 280 282 283 285 288 289 290 291 292 294 295 297 299 300 299 299 300 301 301 301 302 302 300 300 299 298 297 297 298
263 263 264 265 266 267 268 269 269 271 272 273 275 276 279 282 284 287 288 289 290 289 289 290 292 294 297 299 300 300 299 300 301 301 302 303 301 300 299 297 297 298 297 298
262 264 265 266 266 267 268 270 271 271 270 272 274 276 279 280 283 286 286 286 287 287 286 288 291 294 297 299 300 301 301 301 301 302 302 302 301 300 298 298 298 298 298 300
262 263 264 264 265 266 268 270 271 272 271 272 274 276 278 279 281 282 284 284 284 285 285 286 288 291 295 298 299 300 301 301 301 301 301 301 300 300 298 299 299 297 297 298
263 262 262 263 264 265 267 267 269 271 272 273 274 275 276 277 278 280 282 282 283 284 285 286 288 291 293 296 298 298 300 300 301 300 300 300 299 297 296 297 296 296 298 299
262 263 265 266 266 267 267 266 267 269 271 273 274 274 273 274 277 278 280 281 283 284 286 288 290 291 293 294 295 296 297 298 298 298 300 300 298 296 296 298 298 298 297 298
261 263 265 266 265 266 268 268 269 270 272 273 274 274 274 274 275 276 278 279 282 284 286 287 289 290 291 292 293 294 294 294 294 296 298 299 296 294 295 297 297 297 297 297
264 264 265 267 268 269 270 270 271 271 271 273 274 276 276 276 276 277 277 278 280 283 284 286 287 290 290 290 290 292 292 292 294 296 297 297 297 294 293 295 295 297 300 299
266 267 268 270 271 272 273 274 273 272 272 274 276 277 278 278 278 278 277 277 279 280 281 283 286 289 291 290 290 290 290 290 291 294 295 295 296 293 290 292 294 298 300 301
267 269 272 274 275 274 273 274 275 274 273 275 276 278 278 279 279 278 277 277 277 278 280 283 286 288 289 290 289 289 289 288 288 289 289 291 292 291 289 291 293 296 298 300
269 271 272 274 275 276 276 277 277 277 275 275 277 279 280 280 279 278 277 276 275 276 278 282 285 285 286 287 287 288 287 286 286 287 287 287 288 289 288 290 292 294 296 298
272 272 273 274 275 277 278 279 280 279 278 277 278 278 277 277 279 279 279 278 277 277 278 281 282 283 284 286 287 287 286 285 285 285 284 285 285 286 287 288 291 292 292 293
275 277 276 277 277 279 280 280 281 282 281 280 279 278 279 278 278 278 279 278 278 279 280 281 280 281 282 283 283 284 286 285 284 283 283 283 283 284 284 284 287 290 291 289
Height
5812 5813 5813 5813 5812 5812 5811 5810 5810 5809 5807 5806 5804 5802 5800 5799 5797 5796 5794 5793 5791 5790 5788 5786 5784 5781 5779 5777 5774 5771 5769 5766 5763 5760 5757 5754 5750 5747 5744 5741 5738 5735 5733 5730
5806 5807 5806 5806 5806 5806 5806 5805 5804 5803 5802 5801 5799 5797 5796 5794 5792 5791 5789 5788 5786 5784 5782 5780 5778 5776 5774 5772 5769 5766 5763 5760 5757 5754 5750 5747 5744 5741 5738 5735 5732 5729 5726 5724
5799 5800 5799 5800 5801 5800 5800 5799 5799 5798 5797 5795 5794 5792 5791 5789 5788 5786 5784 5783 5781 5779 5777 5775 5773 5771 5768 5766 5763 5761 5758 5754 5751 5748 5744 5741 5738 5735 5731 5728 5725 5722 5719 5717
5792 5793 5793 5796 5794 5794 5793 5793 5793 5792 5790 5790 5788 5787 5786 5784 5782 5781 5779 5777 5775 5773 5771 5769 5767 5765 5762 5760 5757 5755 5752 5749 5745 5742 5739 5735 5731 5728 5724 5721 5718 5716 5713 5710
5786 5786 5786 5788 5787 5786 5786 5786 5786 5785 5784 5783 5782 5781 5780 5778 5777 5775 5773 5772 5769 5767 5765 5763 5761 5759 5757 5754 5751 5749 5746 5742 5739 5736 5733 5729 5725 5721 5718 5715 5712 5709 5706 5703
5779 5779 5780 5782 5780 5779 5780 5779 5779 5778 5778 5777 5777 5776 5775 5773 5771 5769 5767 5765 5763 5761 5759 5757 5755 5753 5751 5748 5745 5742 5740 5737 5733 5730 5726 5723 5719 5715 5712 5708 5705 5702 5699 5696
5772 5772 5773 5773 5773 5773 5774 5774 5772 5771 5771 5771 5770 5770 5769 5766 5764 5763 5761 5759 5757 5754 5753 5751 5748 5746 5744 5742 5739 5736 5733 5730 5727 5724 5720 5716 5713 5709 5705 5702 5699 5696 5692 5689
5766 5766 5768 5766 5766 5767 5767 5765 5765 5765 5765 5764 5764 5762 5761 5760 5758 5756 5754 5752 5750 5748 5746 5744 5742 5740 5738 5736 5733 5730 5727 5724 5721 5717 5714 5710 5706 5702 5699 5696 5692 5689 5686 5683
5759 5761 5759 5759 5758 5759 5758 5758 5758 5758 5758 5757 5757 5755 5754 5753 5751 5750 5748 5746 5743 5742 5740 5738 5736 5734 5732 5729 5726 5724 5721 5718 5714 5711 5707 5703 5700 5696 5692 5689 5686 5683 5680 5677
5751 5751 5751 5751 5751 5751 5751 5751 5751 5751 5750 5750 5749 5748 5747 5746 5744 5743 5741 5739 5737 5735 5734 5732 5730 5727 5725 5722 5720 5717 5714 5711 5708 5704 5700 5697 5693 5690 5686 5683 5680 5677 5674 5671
5742 5743 5743 5743 5743 5743 5743 5743 5743 5743 5743 5742 5741 5741 5740 5738 5737 5735 5734 5732 5730 5729 5727 5725 5723 5720 5718 5715 5713 5710 5707 5704 5701 5697 5694 5690 5687 5683 5680 5676 5673 5670 5667 5664
5734 5735 5735 5735 5735 5735 5735 5736 5736 5735 5735 5734 5734 5733 5732 5731 5730 5728 5726 5725 5723 5722 5720 5718 5716 5714 5711 5709 5706 5703 5700 5697 5694 5690 5686 5683 5680 5676 5673 5670 5667 5664 5661 5658
5725 5726 5726 5726 5726 5727 5727 5728 5728 5727 5727 5727 5726 5725 5724 5723 5722 5721 5719 5718 5716 5715 5713 5711 5709 5707 5704 5702 5699 5696 5693 5689 5686 5682 5679 5675 5672 5669 5666 5663 5660 5658 5655 5652
5716 5717 5718 5718 5718 5719 5719 5719 5719 5719 5719 5719 5718 5717 5717 5716 5715 5713 5712 5711 5709 5708 5706 5704 5701 5699 5696 5694 5691 5688 5685 5681 5678 5675 5671 5668 5665 5661 5658 5655 5653 5650 5648 5645
5708 5708 5709 5709 5710 5710 5710 5711 5711 5711 5711 5711 5710 5710 5709 5708 5707 5706 5704 5703 5701 5700 5698 5696 5694 5691 5689 5686 5683 5680 5677 5673 5670 5667 5663 5660 5657 5653 5650 5648 5645 5643 5640 5638
5699 5700 5700 5701 5701 5702 5702 5703 5703 5703 5703 5702 5702 5702 5701 5700 5699 5698 5697 5695 5694 5692 5690 5688 5686 5683 5680 5678 5675 5672 5669 5665 5662 5659 5656 5652 5649 5646 5643 5641 5638 5636 5634 5631
5691 5692 5692 5693 5693 5693 5694 5694 5694 5694 5694 5694 5694 5693 5693 5692 5691 5690 5689 5687 5685 5684 5682 5680 5678 5675 5673 5670 5667 5664 5661 5658 5654 5651 5648 5645 5642 5639 5636 5634 5632 5629 5627 5625
5683 5683 5684 5684 5685 5685 5685 5686 5685 5685 5685 5685 5685 5685 5684 5684 5683 5682 5680 5679 5677 5676 5674 5672 5669 5667 5665 5662 5660 5657 5653 5650 5647 5644 5641 5638 5635 5632 5630 5628 5625 5623 5621 5619
5675 5675 5675 5676 5677 5677 5677 5677 5677 5677 5677 5677 5676 5676 5675 5675 5674 5673 5671 5670 5669 5667 5666 5664 5662 5659 5657 5655 5652 5649 5646 5643 5640 5638 5635 5632 5629 5626 5624 5622 5620 5618 5615 5613
5667 5667 5668 5668 5668 5668 5668 5668 5668 5668 5668 5667 5667 5666 5666 5665 5665 5664 5663 5661 5660 5659 5657 5655 5653 5651 5649 5646 5644 5642 5639 5636 5634 5631 5629 5626 5623 5621 5619 5617 5615 5612 5610 5607
5659 5660 5660 5660 5660 5660 5660 5659 5659 5659 5659 5658 5658 5657 5657 5656 5655 5654 5653 5653 5652 5650 5648 5647 5645 5643 5640 5638 5636 5634 5632 5629 5627 5625 5622 5620 5618 5616 5614 5611 5609 5607 5604 5602
5651 5652 5652 5652 5652 5652 5651 5651 5651 5650 5650 5650 5649 5648 5647 5647 5646 5645 5644 5644 5643 5641 5640 5638 5636 5635 5632 5630 5628 5626 5624 5622 5620 5618 5616 5614 5612 5610 5608 5606 5604 5601 5599 5596
5644 5644 5644 5644 5644 5643 5643 5642 5642 5642 5641 5641 5640 5639 5638 5638 5637 5636 5635 5634 5633 5632 5631 5629 5628 5626 5624 5622 5620 5618 5616 5615 5613 5611 5609 5607 5605 5604 5602 5600 5598 5595 5593 5590
5636 5637 5636 5636 5635 5635 5634 5634 5633 5633 5632 5632 5631 5630 5629 5628 5628 5627 5626 5625 5624 5623 5622 5621 5620 5618 5616 5614 5612 5611 5609 5607 5606 5604 5602 5601 5599 5597 5596 5594 5592 5590 5587 5585
5629 5629 5628 5628 5627 5627 5626 5625 5625 5624 5623 5623 5622 5621 5620 5619 5618 5618 5617 5616 5615 5614 5613 5612 5611 5609 5608 5606 5605 5603 5601 5600 5598 5597 5595 5594 5592 5591 5589 5588 5586 5584 5582 5579
5621 5621 5621 5620 5619 5619 5618 5618 5617 5616 5615 5614 5613 5613 5611 5611 5610 5609 5608 5607 5606 5606 5605 5604 5602 5601 5600 5598 5597 5595 5594 5592 5591 5590 5588 5587 5585 5584 5583 5581 5579 5577 5576 5574
5615 5614 5614 5613 5612 5611 5611 5610 5609 5608 5607 5606 5605 5604 5603 5602 5601 5600 5599 5599 5598 5597 5596 5595 5594 5593 5592 5590 5589 5587 5586 5584 5583 5582 5581 5579 5578 5577 5576 5574 5573 5571 5569 5568